MOZ.5/SAFIR/RUBIN 5/SL-8


10-day predictions
MOZ.5/SAFIR/RUBIN 5/SL-8 is classified as:


NORAD ID: 28898
Int'l Code: 2005-043G
Launch date: October 27, 2005
Source: Germany (GER)
Your satellite tracking list
Your tracking list is empty





NASA's NSSDC Master Catalog

Two Line Element Set (TLE):
1 28898U 05043G   15125.06418138  .00000296  00000-0  70830-4 0  9991
2 28898 097.8440 301.9879 0021341 102.4702 257.8889 14.59877173506878

Source of the keplerian elements: AFSPC

N2YO: 4884